Wind_Speed
12 12 12 12 12 12 11 11 11 10 10 10 9 9 9 8 8 7 7 6 5 4 4 2 1 1 0 1 1 2 3 2 3 4 4 4 5 5 6 6 7 8 9
11 11 11 11 12 11 11 11 10 10 11 10 10 10 9 8 8 8 7 6 5 4 3 3 2 1 1 1 2 2 2 3 3 4 5 5 5 5 6 7 8 9 10
9 10 9 10 10 10 10 10 10 10 11 11 11 10 10 10 9 8 8 7 6 5 3 2 2 1 1 2 2 3 3 4 4 4 5 5 6 7 7 8 9 10 10
7 8 8 8 8 9 9 9 9 10 10 10 11 10 10 10 9 8 8 8 7 6 5 4 3 3 2 3 3 3 4 5 5 5 6 6 8 8 8 9 9 9 10
5 7 7 7 7 7 8 9 9 9 9 10 10 10 9 9 9 8 8 7 7 7 6 5 5 5 3 3 3 4 5 6 7 7 8 8 8 9 9 9 10 10 10
4 5 6 6 6 7 7 7 8 8 8 8 9 8 9 9 9 9 8 7 7 6 6 6 6 6 5 5 5 5 6 7 7 8 8 9 9 9 10 10 11 11 11
3 3 4 5 5 5 5 6 6 6 6 7 7 7 7 7 7 8 7 7 7 7 6 6 6 6 6 6 6 6 6 6 7 8 9 9 10 10 11 11 11 12 13
4 3 3 2 3 3 3 3 4 4 4 5 5 5 5 5 6 6 6 6 6 6 6 6 7 7 7 7 7 7 7 7 8 8 10 10 11 12 12 13 13 14 14
6 5 4 3 2 1 2 2 2 2 2 2 2 2 3 3 4 4 5 5 6 6 6 7 7 8 8 8 8 8 8 8 9 9 10 12 13 13 14 14 14 15 15
8 7 7 5 4 3 2 2 2 2 2 1 1 2 2 3 5 4 5 5 6 6 7 8 8 8 8 9 9 9 9 9 10 11 12 13 14 15 15 15 16 17 17
9 8 8 7 6 5 5 5 4 4 3 3 3 3 4 4 4 5 6 7 7 8 8 9 9 9 9 10 10 11 11 12 12 13 14 14 14 15 16 16 17 17 18
10 10 10 8 8 7 7 7 7 6 5 5 5 5 6 6 5 6 7 8 8 9 10 10 10 11 11 12 13 13 14 14 15 15 15 16 16 16 17 17 18 18 19
11 11 10 10 9 8 8 8 8 8 7 7 7 7 8 8 8 8 8 9 10 11 12 12 12 12 13 14 14 15 15 15 16 16 17 17 16 17 17 18 18 19 19
11 11 11 11 11 10 10 9 10 10 10 9 10 10 10 10 10 10 11 12 12 12 13 13 14 14 14 15 16 16 16 16 16 17 17 18 17 18 19 19 20 20 20
12 12 12 13 13 13 13 13 13 13 13 12 12 12 12 12 12 12 13 14 14 14 15 15 15 16 16 17 17 17 17 17 18 18 19 19 19 19 20 20 21 22 22
15 16 15 15 16 16 16 16 15 15 15 15 14 14 14 13 13 14 15 15 16 16 17 17 17 17 18 18 18 18 19 19 20 20 21 21 21 21 22 22 23 24 24
19 19 18 18 18 18 18 18 18 18 18 18 18 16 16 16 16 17 18 18 18 19 19 20 20 20 20 20 20 20 21 21 22 23 23 23 23 24 24 24 25 25 25
21 20 20 20 21 21 21 21 21 21 21 20 19 19 19 20 20 21 21 21 22 22 22 22 22 22 22 22 22 22 23 23 24 24 24 25 25 26 27 27 26 27 27
23 23 23 23 23 23 24 24 24 24 22 22 22 22 23 23 24 24 24 24 24 24 24 24 25 25 24 24 24 24 25 25 26 26 26 26 26 27 28 29 29 28 28
26 25 24 25 26 26 26 26 27 27 25 25 25 25 26 26 26 27 27 27 27 27 27 27 27 27 27 27 27 27 27 27 28 28 28 29 29 29 29 30 30 30 29
26 27 27 27 28 28 28 29 29 29 29 28 28 28 29 29 29 30 30 30 30 30 31 30 30 30 29 29 29 29 29 29 29 30 30 31 31 30 30 30 29 30 30
28 29 29 30 30 30 31 31 31 31 31 30 30 31 31 31 32 32 32 32 33 33 33 32 32 31 31 30 31 31 32 31 31 31 31 31 32 30 30 30 30 31 30
30 30 31 32 32 33 33 32 32 32 32 32 33 33 34 34 33 33 33 33 33 33 33 31 31 31 31 32 32 33 32 32 32 32 31 32 31 32 32 32 32 31 31
32 32 33 33 34 34 34 34 33 32 33 33 33 34 35 35 34 33 33 33 32 32 33 31 31 31 32 33 33 32 32 32 32 32 32 32 33 33 33 32 32 32 32
33 34 34 34 35 35 35 35 35 35 33 33 33 33 34 34 34 33 33 33 33 34 34 33 33 32 33 34 34 34 34 34 34 34 34 34 34 34 33 34 34 33 33
35 35 35 35 36 35 35 35 35 35 34 34 33 33 33 33 33 33 33 34 35 35 35 34 33 33 34 35 35 36 36 36 35 34 34 34 33 34 34 34 34 34 34
Wind_Direction
49 49 51 51 52 56 59 64 69 73 73 72 75 79 80 78 78 81 84 85 92 100 105 105 123 123 238 305 305 277 278 282 268 259 272 281 280 284 283 283 282 281 278
46 51 50 50 52 55 58 64 69 73 75 73 73 77 77 78 76 76 80 81 85 87 87 86 87 67 286 277 284 274 277 277 282 278 273 275 286 291 292 288 289 288 282
39 48 50 49 53 57 61 65 69 72 75 75 74 73 75 77 77 74 75 76 74 75 75 62 39 1 324 304 298 298 303 299 300 299 289 287 288 291 292 292 292 289 285
34 42 48 49 55 61 65 67 70 71 72 73 73 73 74 73 71 70 68 69 68 65 62 50 29 6 339 322 308 309 306 307 306 302 298 296 291 293 292 292 290 289 285
31 34 41 48 54 64 68 68 69 71 73 72 72 73 73 70 66 65 61 61 61 58 54 45 34 22 0 331 313 306 303 300 300 298 295 292 295 292 290 292 291 289 285
18 23 32 44 56 69 69 67 68 71 73 74 74 72 70 67 64 61 59 56 54 51 46 37 30 20 7 348 325 310 304 300 298 298 300 298 295 294 293 291 291 291 289
354 8 22 40 55 64 66 67 65 64 70 73 73 70 65 61 58 55 52 50 48 46 40 29 20 14 4 354 341 330 324 319 314 310 305 303 299 297 297 294 291 291 291
309 323 344 24 45 55 58 62 59 53 62 72 72 67 63 57 52 51 46 42 39 34 26 17 12 6 358 350 341 331 324 320 319 317 310 304 300 298 297 294 292 289 289
285 294 298 308 332 16 23 7 20 27 37 57 62 55 49 42 39 37 27 27 26 18 11 7 359 352 348 344 340 337 329 323 320 317 313 308 303 300 298 296 294 292 290
277 280 280 282 283 291 295 307 308 324 330 334 326 325 343 10 19 12 9 7 4 360 355 351 349 347 343 338 337 336 331 322 317 313 310 308 305 302 298 296 295 292 291
280 278 274 271 273 276 283 291 292 289 287 295 292 297 309 327 347 356 354 350 344 343 342 341 338 337 334 329 325 322 321 318 314 310 308 305 304 305 302 299 298 296 294
276 275 273 269 275 280 287 292 287 286 286 286 280 290 306 316 323 325 328 331 330 329 328 328 329 330 327 324 319 315 314 313 312 310 309 307 306 307 306 303 302 300 299
269 270 271 267 269 275 282 285 283 288 286 289 288 289 296 303 306 308 311 314 317 320 320 321 321 320 320 318 316 316 313 311 311 312 311 310 309 307 307 305 304 303 301
263 262 260 260 264 270 274 277 280 282 285 284 287 285 286 291 295 300 301 305 310 313 313 313 315 314 315 315 313 313 312 310 310 310 310 309 308 307 306 305 305 303 301
267 263 264 265 265 267 270 274 278 279 280 275 275 281 286 286 293 297 298 300 302 307 308 309 311 313 313 313 314 313 312 311 309 309 307 306 305 305 305 304 303 303 302
266 265 264 265 266 266 268 271 273 273 274 274 276 281 285 288 293 299 299 304 304 304 305 305 308 310 310 311 311 312 312 310 310 309 308 305 303 303 303 302 302 301 301
265 264 263 263 263 264 265 267 268 269 272 274 275 279 284 288 293 295 297 299 301 303 305 304 304 304 305 306 306 307 307 307 306 307 306 306 304 301 301 300 300 301 301
265 263 261 264 264 265 266 266 266 265 268 272 274 276 281 283 286 288 291 293 294 300 301 301 299 300 301 302 303 302 302 305 307 307 307 305 303 302 300 299 300 301 300
265 265 265 266 265 265 266 266 267 267 269 268 268 270 274 277 280 284 286 289 291 293 297 299 300 297 297 298 299 303 305 305 307 305 305 304 303 301 301 299 299 299 298
268 267 267 267 269 268 268 267 268 269 268 267 267 268 270 274 277 280 282 285 287 289 292 294 296 298 299 299 299 299 303 304 305 306 305 305 303 302 300 298 297 297 297
267 267 268 270 271 271 269 268 269 269 268 268 270 272 271 272 274 277 279 282 283 285 288 291 293 296 297 298 298 298 300 302 304 305 305 305 304 301 300 298 297 296 295
266 268 269 270 272 273 271 269 269 269 267 267 269 271 273 274 276 277 279 281 284 286 287 288 291 292 294 296 297 296 296 299 302 304 304 304 303 302 302 301 300 298 296
267 270 272 272 273 275 273 269 268 267 267 269 268 270 273 275 278 279 280 282 284 286 289 288 289 290 292 294 296 297 296 296 298 300 300 301 301 302 302 301 299 297 296
267 270 272 273 273 273 272 270 268 266 267 269 269 271 272 275 277 279 280 282 285 287 288 289 289 289 290 294 296 297 297 296 296 297 297 297 298 299 299 299 299 297 296
270 270 271 273 272 270 271 270 269 269 270 269 271 274 275 276 277 278 280 281 283 285 287 287 288 290 292 294 295 297 297 296 296 296 296 296 297 299 299 298 298 297 297
270 271 271 272 271 270 269 269 268 269 270 271 272 274 275 275 276 277 280 282 284 284 284 285 287 289 291 292 293 295 296 295 295 295 295 296 297 298 298 297 297 296 296
Height
5899 5898 5897 5895 5894 5892 5891 5889 5888 5887 5887 5886 5885 5885 5884 5884 5884 5883 5883 5883 5883 5883 5884 5884 5884 5885 5885 5885 5885 5885 5885 5885 5885 5885 5886 5886 5886 5885 5885 5885 5885 5885 5885
5901 5899 5898 5897 5895 5894 5892 5891 5890 5889 5888 5888 5887 5886 5886 5885 5885 5884 5884 5884 5884 5884 5884 5885 5884 5884 5884 5885 5884 5885 5884 5884 5884 5884 5884 5884 5885 5884 5884 5884 5884 5883 5883
5903 5901 5899 5898 5897 5896 5894 5894 5893 5891 5890 5889 5889 5888 5887 5887 5886 5886 5885 5885 5885 5885 5885 5885 5884 5884 5884 5884 5884 5884 5884 5884 5883 5883 5883 5883 5883 5883 5883 5882 5881 5881 5880
5904 5903 5901 5899 5898 5897 5896 5895 5894 5893 5892 5891 5890 5890 5889 5889 5888 5887 5887 5886 5886 5885 5885 5885 5884 5884 5884 5884 5883 5883 5883 5883 5882 5882 5881 5881 5881 5881 5881 5880 5879 5878 5878
5905 5904 5902 5900 5899 5898 5898 5897 5896 5895 5894 5893 5892 5892 5891 5890 5889 5889 5888 5888 5887 5886 5886 5885 5885 5884 5883 5883 5883 5883 5882 5882 5881 5880 5880 5879 5879 5878 5878 5878 5877 5876 5876
5906 5905 5903 5901 5900 5899 5899 5898 5898 5897 5896 5895 5894 5893 5893 5892 5891 5890 5889 5889 5888 5887 5887 5886 5885 5884 5883 5883 5882 5881 5881 5880 5879 5879 5878 5877 5877 5876 5876 5875 5874 5874 5873
5907 5906 5904 5903 5901 5901 5900 5900 5899 5898 5897 5896 5895 5894 5894 5893 5892 5891 5890 5890 5889 5888 5887 5887 5885 5884 5883 5882 5881 5880 5880 5879 5878 5877 5876 5876 5875 5874 5873 5873 5872 5871 5870
5907 5906 5905 5904 5902 5902 5901 5900 5899 5899 5897 5896 5896 5895 5894 5894 5893 5892 5891 5890 5890 5889 5888 5887 5885 5884 5883 5882 5880 5879 5878 5878 5877 5876 5874 5873 5873 5872 5871 5870 5869 5868 5867
5906 5905 5905 5904 5903 5902 5901 5900 5900 5899 5898 5897 5896 5895 5895 5894 5893 5892 5892 5891 5890 5889 5888 5887 5885 5884 5882 5881 5879 5878 5877 5876 5875 5874 5872 5871 5870 5869 5868 5867 5866 5865 5863
5905 5904 5904 5903 5902 5902 5901 5900 5899 5898 5898 5896 5896 5895 5894 5894 5892 5892 5891 5891 5890 5889 5888 5886 5885 5883 5882 5880 5878 5877 5876 5874 5873 5871 5870 5869 5867 5866 5864 5863 5861 5860 5859
5903 5903 5902 5902 5902 5901 5900 5900 5899 5898 5896 5895 5895 5895 5894 5893 5892 5892 5891 5890 5889 5888 5887 5885 5884 5882 5880 5879 5877 5875 5874 5872 5870 5869 5867 5866 5864 5862 5861 5859 5858 5856 5855
5901 5901 5901 5901 5900 5900 5899 5898 5897 5897 5896 5895 5894 5894 5893 5892 5892 5891 5890 5889 5888 5887 5885 5884 5882 5881 5879 5877 5875 5873 5871 5869 5867 5866 5864 5862 5861 5859 5857 5855 5854 5852 5850
5898 5898 5898 5898 5898 5898 5897 5896 5895 5894 5894 5893 5893 5892 5892 5891 5890 5889 5888 5887 5886 5885 5883 5881 5880 5878 5876 5874 5872 5870 5868 5866 5864 5862 5861 5859 5857 5855 5853 5851 5849 5847 5845
5896 5896 5895 5896 5896 5895 5895 5894 5893 5893 5892 5891 5891 5890 5889 5888 5888 5887 5885 5884 5883 5882 5881 5879 5877 5875 5873 5871 5869 5867 5865 5862 5860 5859 5857 5855 5852 5851 5849 5847 5844 5842 5840
5892 5892 5893 5893 5893 5892 5892 5891 5890 5890 5889 5888 5887 5886 5886 5885 5884 5883 5882 5881 5880 5879 5878 5876 5874 5872 5870 5868 5866 5863 5861 5859 5856 5854 5852 5850 5848 5846 5844 5842 5839 5837 5835
5888 5889 5889 5889 5889 5888 5887 5887 5887 5886 5885 5885 5884 5884 5882 5881 5881 5879 5878 5877 5876 5875 5874 5872 5870 5868 5866 5864 5862 5859 5857 5855 5853 5850 5847 5845 5843 5841 5839 5836 5834 5832 5829
5884 5884 5884 5884 5884 5883 5882 5882 5882 5881 5881 5881 5880 5879 5878 5877 5877 5876 5875 5874 5872 5871 5870 5868 5866 5864 5862 5860 5857 5855 5853 5850 5848 5845 5843 5840 5838 5835 5833 5830 5828 5825 5823
5878 5878 5878 5878 5877 5877 5877 5876 5876 5876 5875 5875 5875 5876 5875 5874 5873 5872 5871 5869 5868 5866 5865 5863 5861 5859 5857 5855 5852 5850 5847 5845 5843 5840 5837 5834 5832 5829 5826 5824 5822 5819 5816
5871 5871 5871 5871 5871 5870 5870 5870 5870 5870 5870 5870 5870 5870 5869 5868 5868 5866 5865 5863 5863 5861 5859 5857 5855 5853 5851 5849 5846 5844 5841 5839 5836 5833 5830 5828 5825 5822 5819 5817 5814 5811 5809
5864 5864 5864 5864 5864 5864 5863 5863 5863 5863 5863 5863 5863 5862 5862 5861 5861 5860 5859 5858 5856 5855 5853 5851 5849 5847 5845 5843 5840 5838 5835 5832 5829 5826 5823 5821 5818 5815 5811 5808 5806 5803 5800
5856 5857 5857 5856 5856 5856 5855 5855 5855 5855 5855 5855 5855 5855 5854 5854 5853 5852 5851 5850 5849 5847 5846 5844 5842 5840 5837 5835 5832 5830 5827 5825 5822 5819 5816 5813 5810 5806 5803 5801 5798 5795 5792
5848 5849 5849 5848 5847 5847 5846 5845 5845 5845 5846 5846 5846 5846 5846 5845 5844 5843 5842 5841 5840 5839 5837 5835 5833 5831 5829 5827 5824 5821 5819 5816 5814 5811 5808 5805 5802 5798 5795 5793 5790 5787 5784
5840 5840 5839 5839 5838 5837 5836 5836 5836 5836 5837 5837 5837 5837 5837 5836 5835 5834 5832 5831 5831 5829 5828 5826 5824 5822 5820 5818 5815 5812 5810 5807 5805 5802 5799 5797 5794 5791 5788 5785 5782 5779 5776
5830 5830 5830 5829 5828 5827 5826 5826 5826 5826 5827 5827 5828 5828 5827 5826 5825 5824 5823 5823 5821 5820 5819 5817 5815 5813 5811 5809 5806 5804 5801 5798 5796 5793 5790 5788 5785 5782 5779 5776 5773 5770 5767
5820 5819 5819 5818 5818 5816 5815 5815 5815 5816 5816 5817 5817 5817 5817 5817 5816 5815 5814 5813 5812 5811 5809 5808 5806 5804 5802 5800 5798 5795 5792 5789 5787 5784 5781 5779 5776 5773 5770 5767 5764 5761 5758
5808 5808 5808 5807 5807 5806 5805 5805 5804 5805 5806 5806 5807 5807 5807 5807 5806 5805 5805 5803 5802 5801 5799 5798 5797 5795 5793 5791 5789 5786 5783 5780 5777 5775 5772 5769 5766 5763 5760 5757 5754 5751 5748